Theta_e
297 297 296 297 297 296 296 297 296 291 290 290 289 293 293 292 290 292 292 291 293 294 294 295 295 296 296 297 297 297 297 297 297 297 297 298 298 299
295 295 295 296 295 296 296 296 295 295 293 292 292 291 291 290 290 291 290 290 291 292 292 293 293 294 294 295 295 295 295 295 295 296 296 296 296 297
293 294 294 295 295 295 295 294 294 294 293 290 292 290 288 289 289 290 290 290 290 289 290 290 291 292 293 293 294 294 293 293 293 293 294 294 295 295
292 293 293 293 293 294 294 293 293 293 292 286 288 287 287 288 288 288 287 286 286 285 288 288 289 290 291 291 292 292 291 291 291 291 291 292 293 293
292 292 293 293 292 293 293 292 292 290 291 290 287 289 287 286 286 287 286 286 285 284 284 286 287 288 290 290 290 290 290 290 289 289 289 289 290 291
292 292 293 293 293 292 292 291 290 289 289 289 287 286 286 285 287 286 285 286 287 286 284 283 284 286 288 288 289 289 289 290 289 288 287 287 288 288
290 291 292 291 290 292 291 290 289 288 288 288 285 285 284 283 284 286 286 286 285 286 286 283 284 285 284 287 287 288 289 289 289 288 287 286 286 286
287 288 291 287 289 290 289 290 290 288 287 287 286 284 284 284 285 285 286 284 283 286 286 283 284 282 282 285 286 287 288 288 288 288 287 286 285 285
288 287 289 289 289 290 289 289 288 289 289 288 286 285 285 285 286 285 285 286 285 285 286 284 284 282 282 283 285 286 286 287 287 287 287 286 285 284
288 288 289 289 290 290 289 288 287 288 288 286 287 286 286 286 287 287 287 285 284 284 285 284 285 281 283 282 283 284 284 285 285 286 286 286 285 284
286 287 288 288 289 289 287 286 286 287 287 286 286 286 286 286 286 285 284 284 283 284 284 286 285 284 281 281 281 281 282 282 283 284 284 285 285 284
286 286 285 287 288 289 287 286 284 285 285 284 285 285 284 284 283 284 286 285 285 283 284 284 285 284 283 281 281 280 281 281 282 282 283 283 284 283
286 285 287 288 289 290 288 286 285 286 285 284 282 281 281 281 281 281 282 282 285 284 282 284 285 284 284 282 280 280 279 279 280 280 281 282 282 282
286 287 287 288 289 289 287 287 287 285 284 283 281 279 279 279 278 279 279 281 280 282 281 282 284 284 283 280 279 280 280 279 278 278 279 280 281 281
287 287 287 288 289 289 288 286 285 284 283 281 280 279 279 280 278 279 279 278 277 277 277 278 283 282 282 280 278 277 277 279 277 276 277 278 277 278
287 286 287 287 288 288 286 285 284 284 282 282 281 280 279 278 279 280 279 279 279 277 276 276 279 281 278 276 278 278 276 276 276 276 275 278 278 278
285 285 284 285 285 285 285 284 283 283 282 282 280 277 277 278 279 280 280 280 281 278 276 276 277 278 277 277 278 276 276 277 276 274 275 277 278 277
284 283 283 284 284 284 284 282 281 281 282 281 280 278 277 278 278 279 281 281 278 277 276 277 278 279 278 277 277 277 277 276 276 276 276 275 278 278
284 284 284 284 284 284 285 282 281 281 282 281 280 278 278 278 278 279 280 280 278 277 277 277 279 281 281 281 276 277 275 276 276 278 276 275 275 277
285 284 284 285 285 285 285 283 282 282 280 281 280 279 278 278 278 279 280 279 277 277 276 276 279 281 282 280 278 274 276 275 275 276 275 276 276 276
285 285 285 285 285 285 285 284 283 281 281 281 280 279 278 278 278 280 280 279 276 277 277 278 272 265 272 274 277 275 275 274 274 275 275 276 276 277
286 285 285 285 285 285 285 284 283 281 281 280 280 280 279 279 278 279 279 275 276 278 277 271 269 272 276 277 274 273 275 274 275 274 275 275 274 273
286 285 285 285 285 285 285 284 282 281 281 281 280 280 279 278 279 278 278 277 277 274 272 271 271 272 270 271 272 273 270 272 272 274 277 274 274 275
Wind_Speed
5 6 5 4 4 5 5 4 5 4 6 5 3 4 3 3 3 4 4 9 10 12 13 15 17 18 20 22 23 23 24 25 26 27 28 29 31 32
4 6 5 4 4 4 5 5 4 4 3 3 3 5 4 4 3 5 4 4 11 11 12 13 15 17 19 21 22 23 24 25 25 26 27 29 30 32
7 7 6 5 4 4 4 4 5 4 3 2 4 7 3 5 4 5 4 5 6 12 12 12 14 16 18 20 22 23 23 24 24 25 27 28 29 31
7 6 7 5 6 5 4 5 4 5 3 8 4 4 3 4 5 5 4 5 6 10 12 14 13 15 17 19 21 22 23 23 23 24 25 27 29 30
7 7 7 7 7 5 5 4 3 3 4 5 6 4 2 3 2 2 1 4 4 8 9 12 14 14 16 18 20 21 22 23 23 23 24 26 27 29
7 7 8 8 8 8 6 5 4 4 5 6 6 5 4 2 3 5 3 1 2 0 7 8 9 13 15 17 19 19 20 22 23 23 23 24 26 28
6 7 8 7 7 7 5 6 6 5 6 7 7 6 5 5 6 4 4 3 1 1 2 5 5 6 8 13 13 18 20 21 23 23 23 23 24 27
7 6 6 6 9 10 8 8 7 7 8 6 6 7 8 8 6 6 5 3 2 1 1 3 4 6 6 7 15 17 18 20 21 23 24 23 23 24
7 7 6 6 8 8 9 9 7 7 6 6 6 6 7 8 7 6 4 3 1 2 2 1 2 5 4 6 15 16 17 19 21 22 24 24 22 22
8 8 9 9 9 9 9 8 7 5 5 3 4 5 4 7 6 2 3 5 3 1 1 2 1 3 3 4 13 15 16 18 19 22 23 25 22 20
6 8 8 9 12 14 9 8 6 4 7 9 9 10 12 10 6 5 5 5 3 2 1 1 2 1 2 4 5 12 15 15 19 20 23 24 25 20
6 6 11 11 17 17 9 10 9 7 7 8 8 9 8 6 5 1 4 4 2 2 2 2 2 2 1 1 4 6 6 14 15 18 21 23 26 10
6 6 7 18 19 19 15 10 10 9 11 7 7 6 6 4 3 2 2 2 2 1 2 1 1 2 0 1 1 3 6 7 8 9 16 20 21 20
8 6 7 19 20 21 16 16 15 14 7 7 7 6 6 5 4 3 3 4 4 5 3 2 0 1 1 1 1 2 2 6 6 7 8 12 16 20
5 8 14 20 19 18 20 20 15 8 8 7 8 6 5 6 7 6 5 6 6 6 5 4 2 2 2 2 2 3 3 4 6 6 7 8 9 9
9 8 12 14 15 12 12 14 8 8 9 8 7 7 6 7 6 5 5 4 3 3 5 5 3 2 2 3 2 2 4 3 5 6 5 5 7 8
8 6 6 8 9 9 9 9 8 8 9 8 8 8 7 7 6 6 5 5 2 4 4 4 6 8 7 3 2 3 3 3 4 6 5 5 5 7
8 7 8 9 10 11 11 10 9 10 9 8 8 8 8 8 7 6 6 5 5 5 6 4 4 3 2 6 10 3 2 3 4 5 4 3 4 6
10 9 10 11 11 11 11 10 10 9 9 9 8 8 8 7 9 7 6 6 6 5 4 3 3 2 2 1 2 11 4 4 5 4 4 3 3 5
10 9 10 10 11 11 11 11 10 10 9 9 9 9 8 9 8 8 7 8 7 6 4 2 2 1 1 2 2 3 9 4 4 5 5 4 5 11
9 10 9 10 10 11 11 11 12 11 11 10 9 9 9 9 8 7 7 8 8 6 6 4 3 1 2 1 3 2 2 4 4 6 7 4 4 4
9 10 10 9 9 10 10 10 10 11 11 10 10 9 9 8 9 9 8 9 8 6 5 5 3 2 1 2 2 2 1 3 3 2 4 5 4 5
10 11 10 10 9 10 11 11 11 11 11 11 10 10 10 9 8 7 7 7 8 7 6 5 3 2 2 3 2 2 2 3 4 4 1 3 6 7
Wind_Direction
216 228 226 225 217 225 228 224 238 191 199 190 165 165 126 127 94 93 75 30 37 35 32 30 28 26 26 27 24 22 22 19 16 14 13 11 10 9
187 210 217 213 210 216 227 227 224 255 163 144 181 158 143 122 85 100 80 48 34 37 32 29 31 30 28 28 26 24 22 20 15 14 14 13 13 10
207 189 210 206 207 200 215 223 215 209 158 143 126 130 130 135 115 96 74 73 50 36 35 35 34 34 31 30 27 26 23 20 17 14 14 14 14 13
225 189 199 194 214 205 202 208 206 191 142 161 144 147 142 147 145 112 77 72 59 45 44 39 36 34 33 29 27 26 25 22 18 16 14 14 14 14
221 210 202 192 209 204 205 200 180 177 167 163 147 147 120 164 140 125 101 98 65 43 44 45 41 38 34 32 26 25 24 23 20 17 15 15 15 13
197 209 208 201 207 202 196 195 173 150 163 151 155 147 151 136 182 173 168 108 86 130 59 36 37 39 29 32 24 21 23 22 22 18 16 15 16 15
174 200 207 198 203 195 182 187 175 169 158 166 157 160 174 173 193 179 183 152 125 346 43 31 30 33 14 28 21 19 21 21 21 21 17 17 16 15
183 178 201 179 195 178 174 187 190 176 174 174 167 176 178 184 181 181 162 172 192 128 224 59 24 41 27 15 20 21 21 22 19 19 20 18 15 13
186 176 172 203 177 177 175 178 186 193 190 171 177 177 165 176 172 168 173 182 122 105 245 96 28 53 33 13 20 21 23 20 22 19 17 18 15 11
184 186 174 191 181 168 165 177 180 180 166 148 179 155 149 159 166 156 128 105 90 106 296 190 157 61 39 39 23 23 25 24 21 21 17 15 12 10
183 182 171 176 174 168 161 168 167 161 125 117 118 123 133 140 138 137 146 161 155 172 159 243 156 141 41 30 13 15 24 19 23 21 19 15 11 7
183 187 183 179 176 173 168 187 182 166 137 132 126 113 104 126 121 10 162 194 159 171 143 226 165 198 187 103 16 13 9 12 15 18 18 18 12 6
192 185 193 187 182 177 179 191 193 151 157 137 128 125 120 121 127 97 20 338 217 87 97 265 189 192 18 63 340 12 16 6 6 11 11 13 13 16
207 189 185 185 180 179 180 190 180 165 155 150 158 154 151 145 130 118 80 72 49 58 79 3 332 256 170 155 329 349 8 14 0 6 6 6 12 12
204 194 182 186 188 186 186 192 173 172 165 169 177 168 158 134 123 124 104 96 78 54 34 9 341 85 29 55 43 5 337 12 8 2 3 7 2 359
185 180 183 187 188 176 169 191 180 173 177 179 171 153 143 151 148 153 148 150 116 88 51 26 28 23 93 60 32 40 16 8 351 5 341 355 5 12
165 164 175 179 183 178 173 180 173 166 173 172 158 162 160 164 161 165 162 162 169 145 113 72 71 77 66 36 74 35 5 9 4 352 351 351 13 8
184 189 185 185 188 184 179 171 177 180 177 169 167 164 164 166 162 170 165 173 154 142 135 140 149 143 135 73 40 17 20 352 354 351 351 330 353 11
210 198 191 186 189 186 185 180 183 185 172 173 167 165 162 159 161 164 168 158 153 144 135 148 197 228 171 109 95 38 11 5 334 0 2 354 321 338
214 204 197 188 190 191 185 180 175 175 177 171 168 165 166 160 162 169 167 165 159 146 146 161 201 57 359 55 125 75 19 11 2 354 4 323 256 283
213 207 198 194 194 191 191 177 173 174 176 171 168 166 166 164 164 164 160 159 153 156 159 153 71 11 76 197 127 103 63 41 9 9 345 325 332 330
207 201 195 193 193 191 187 176 168 169 172 174 169 167 165 168 164 162 161 157 168 162 125 105 128 142 84 11 85 101 67 351 334 318 6 30 352 347
203 194 193 187 187 191 186 180 174 173 175 173 166 164 162 165 160 155 152 153 147 139 141 134 124 75 69 63 55 86 41 1 350 359 48 332 322 300